This is the latest recevied weather packets stored in our database for station/object N3SBK. If no packets are shown the sender has not sent any weather packets the latest 10 day(s).
| Time | Temp. | Humidity | Pressure | Rain* | Wind** | Luminosity | Snow |
|---|---|---|---|---|---|---|---|
| 1787861982 | 28.33° C | 57% | 1005.9 hPa | 0 mm | - | 423 W/m² | - |
| 1787861677 | 28.33° C | 57% | 1005.8 hPa | 0 mm | - | 138 W/m² | - |
| 1787861375 | 28.33° C | 62% | 1006.2 hPa | 0 mm | - | 182 W/m² | - |
| 1787861070 | 28.89° C | 58% | 1006.1 hPa | 0 mm | - | 141 W/m² | - |
| 1787860769 | 27.78° C | 62% | 1006.2 hPa | 0 mm | - | 493 W/m² | - |
| 1787860464 | 27.78° C | 59% | 1006.1 hPa | 0 mm | - | 104 W/m² | - |
| 1787860164 | 27.22° C | 58% | 1006.1 hPa | 0 mm | - | 169 W/m² | - |
| 1787859860 | 28.33° C | 56% | 1006.4 hPa | 0 mm | - | 126 W/m² | - |
| 1787859554 | 28.89° C | 54% | 1006.4 hPa | 0 mm | - | 111 W/m² | - |
| 1787859249 | 28.89° C | 54% | 1006.2 hPa | 0 mm | - | 564 W/m² | - |
| 1787858945 | 30° C | 52% | 1006.1 hPa | 0 mm | - | 120 W/m² | - |
| 1787858641 | 30° C | 50% | 1006.3 hPa | 0 mm | - | 528 W/m² | - |
| 1787858336 | 30° C | 53% | 1006.1 hPa | 0 mm | - | 550 W/m² | - |
| 1787858031 | 30° C | 52% | 1006.2 hPa | 0 mm | - | 555 W/m² | - |
| 1787857726 | 30° C | 51% | 1006.3 hPa | 0 mm | - | 549 W/m² | - |
| 1787857423 | 30° C | 53% | 1006.2 hPa | 0 mm | - | 557 W/m² | - |
| 1787857120 | 29.44° C | 51% | 1006.3 hPa | 0 mm | - | 627 W/m² | - |
| 1787856816 | 30° C | 51% | 1006.5 hPa | 0 mm | - | 243 W/m² | - |
| 1787856515 | 30° C | 53% | 1006.3 hPa | 0 mm | - | 603 W/m² | - |
| 1787856212 | 29.44° C | 53% | 1006.5 hPa | 0 mm | - | 605 W/m² | - |
| 1787855911 | 29.44° C | 53% | 1006.5 hPa | 0 mm | - | 599 W/m² | - |
| 1787855606 | 29.44° C | 56% | 1006.5 hPa | 0 mm | - | 618 W/m² | - |
| 1787855296 | 29.44° C | 54% | 1006.5 hPa | 0 mm | - | 643 W/m² | - |
| 1787854992 | 29.44° C | 56% | 1006.6 hPa | 0 mm | - | 667 W/m² | - |
| 1787854687 | 29.44° C | 56% | 1006.5 hPa | 0 mm | - | 667 W/m² | - |
* Rain latest hour (hover to see other rain measurements)
** Current wind speed in m/s (hover to see current wind gust speed)